Preview of NWS' New Version of Forecast
This preview is not operational and should not be used for support decisions.

Regional Weather Roundup (RWR)

Issued by National Weather Service (NWS)

                            
000
ASCA42 TJSJ 180810
RWRPR 
PUERTO RICO/U.S. VIRGIN ISLANDS HOURLY WEATHER ROUNDUP
NATIONAL WEATHER SERVICE SAN JUAN PR
400 AM AST THU APR 18 2019

PRZ001>002-007>008-010-180900-
PUERTO RICO
  
CITY           SKY/WX    TMP DP  RH WIND       PRES   REMARKS
SAN JUAN LMM   PTCLDY    75  70  83 SE3       29.96S                  
CEIBA          MOCLDY    79  68  69 MISG      29.98R                  
$$

VIZ001>002-180900-
U.S. VIRGIN ISLANDS
  
CITY           SKY/WX    TMP DP  RH WIND       PRES   REMARKS
CHARLOTTE AMA  CLEAR     75  66  73 E6        29.96R                  
CHRISTIANSTED  CLEAR     75  66  73 NE12      29.96R                  
$$

HOURLY WEATHER ROUNDUP FOR THE NEWS MEDIA
  
CITY           SKY/WX    TMP DP  RH WIND       PRES   REMARKS
ORLANDO        MOCLDY    67  62  84 SE6       30.01F                  
NEW YORK       CLOUDY    50  42  74 E10       30.19F                  
NEWARK         MOCLDY    51  39  63 SE8       30.17F                  
CHICAGO        MOCLDY    63  58  83 SW14G23   29.54S                  
HARTFORD       FAIR      34  34 100 CALM      30.24S FOG              
BOSTON         FAIR      43  34  70 SW6       30.25S                  
DALLAS         CLOUDY    63  59  87 SE7       29.60F                  
PHILADELPHIA   CLOUDY    53  43  68 E8        30.13F                  
LOS ANGELES    PTCLDY    59  52  77 W8        30.11S                  
WASHINGTON DC  CLOUDY    54  47  77 NE5       30.05F